EW8310 Weather Reports


Display with metric or nautical units.
time (UTC)temp
F
wind
direction
speed
MPH
gust
MPH
rain 1hr
in
rain 24hr
in
rain mn
in
humidity
%
barometer
mb
20260509180445 89 32 0.0 5.0 0.00 0.00 0.00 17 1008.7
20260509175944 89 274 2.0 5.0 0.00 0.00 0.00 16 1008.8
20260509175445 89 247 3.0 4.0 0.00 0.00 0.00 17 1008.8
20260509174945 88 324 1.0 5.0 0.00 0.00 0.00 17 1008.9
20260509174445 89 295 1.0 5.0 0.00 0.00 0.00 18 1008.9
20260509173944 89 30 1.0 4.0 0.00 0.00 0.00 17 1008.9
20260509173445 89 207 0.0 4.0 0.00 0.00 0.00 17 1008.9
20260509172945 88 214 1.0 5.0 0.00 0.00 0.00 18 1008.9
20260509172444 89 283 2.0 5.0 0.00 0.00 0.00 18 1009.0
20260509171944 89 275 2.0 5.0 0.00 0.00 0.00 18 1009.1
20260509171443 88 179 1.0 4.0 0.00 0.00 0.00 17 1009.0
20260509170944 88 180 2.0 5.0 0.00 0.00 0.00 17 1009.1
20260509170443 87 217 2.0 5.0 0.00 0.00 0.00 18 1009.0
20260509165943 87 162 1.0 3.0 0.00 0.00 0.00 18 1009.1
20260509165444 88 82 0.0 3.0 0.00 0.00 0.00 18 1009.1
20260509164944 87 223 0.0 3.0 0.00 0.00 0.00 18 1009.1
20260509164443 87 152 1.0 3.0 0.00 0.00 0.00 19 1009.2
20260509164202 86 107 2.0 3.0 0.00 0.00 0.00 18 1009.1
20260509163443 85 102 0.0 3.0 0.00 0.00 0.00 19 1009.1
20260509162942 85 179 1.0 3.0 0.00 0.00 0.00 19 1009.2
20260509162443 86 121 2.0 3.0 0.00 0.00 0.00 18 1009.2
20260509161943 85 192 1.0 3.0 0.00 0.00 0.00 18 1009.2
20260509161443 85 147 1.0 4.0 0.00 0.00 0.00 19 1009.4
20260509160942 84 169 2.0 4.0 0.00 0.00 0.00 19 1009.2
20260509160442 85 83 2.0 4.0 0.00 0.00 0.00 19 1009.2
20260509160200 85 193 1.0 4.0 0.00 0.00 0.00 20 1009.2
20260509155703 84 240 0.0 2.0 0.00 0.00 0.00 20 1009.2
20260509154942 84 228 0.0 2.0 0.00 0.00 0.00 21 1009.1
20260509154441 84 231 0.0 1.0 0.00 0.00 0.00 20 1009.1
20260509153941 84 234 0.0 0.0 0.00 0.00 0.00 20 1009.1
20260509153442 84 158 0.0 1.0 0.00 0.00 0.00 22 1009.2
20260509152942 83 158 0.0 1.0 0.00 0.00 0.00 22 1009.1
20260509152441 82 240 0.0 0.0 0.00 0.00 0.00 23 1009.2
20260509151942 82 154 0.0 1.0 0.00 0.00 0.00 24 1009.2
20260509151442 82 168 0.0 1.0 0.00 0.00 0.00 28 1009.1
20260509150941 80 224 0.0 0.0 0.00 0.00 0.00 27 1009.2
20260509150440 80 237 0.0 0.0 0.00 0.00 0.00 28 1009.1
20260509150159 80 235 0.0 0.0 0.00 0.00 0.00 28 1009.1
20260509145441 79 235 0.0 0.0 0.00 0.00 0.00 29 1009.2
20260509144941 79 155 0.0 0.0 0.00 0.00 0.00 30 1009.1
20260509144440 80 155 0.0 0.0 0.00 0.00 0.00 28 1009.2
20260509143941 80 169 0.0 0.0 0.00 0.00 0.00 28 1009.1
20260509143440 79 37 0.0 0.0 0.00 0.00 0.00 30 1009.1
20260509142939 78 35 0.0 0.0 0.00 0.00 0.00 33 1009.1
20260509142439 76 35 0.0 0.0 0.00 0.00 0.00 35 1009.1
20260509141940 75 35 0.0 0.0 0.00 0.00 0.00 34 1009.0
20260509141440 73 35 0.0 0.0 0.00 0.00 0.00 34 1008.9
20260509140939 72 35 0.0 0.0 0.00 0.00 0.00 40 1009.0
20260509140440 71 35 0.0 0.0 0.00 0.00 0.00 39 1008.9
20260509135939 70 35 0.0 0.0 0.00 0.00 0.00 42 1008.9
20260509135701 70 35 0.0 0.0 0.00 0.00 0.00 43 1008.8
20260509134939 69 35 0.0 0.0 0.00 0.00 0.00 44 1008.8
20260509134438 69 35 0.0 0.0 0.00 0.00 0.00 46 1008.7
20260509133938 68 35 0.0 0.0 0.00 0.00 0.00 43 1008.7
20260509133439 68 35 0.0 0.0 0.00 0.00 0.00 45 1008.7
20260509132938 67 35 0.0 0.0 0.00 0.00 0.00 46 1008.6
20260509132443 67 35 0.0 0.0 0.00 0.00 0.00 45 1008.5
20260509131938 67 35 0.0 0.0 0.00 0.00 0.00 43 1008.5
20260509131701 66 35 0.0 0.0 0.00 0.00 0.00 38 1008.5
20260509131202 66 35 0.0 0.0 0.00 0.00 0.00 42 1008.4
20260509130438 66 45 0.0 0.0 0.00 0.00 0.00 40 1008.4
20260509125937 68 45 0.0 3.0 0.00 0.00 0.00 37 1008.3
20260509125438 69 45 0.0 3.0 0.00 0.00 0.00 33 1008.3
20260509124938 68 32 0.0 3.0 0.00 0.00 0.00 33 1008.3
20260509124438 67 39 2.0 3.0 0.00 0.00 0.00 34 1008.2
20260509123937 67 34 0.0 1.0 0.00 0.00 0.00 35 1008.1
20260509123438 67 35 0.0 2.0 0.00 0.00 0.00 37 1008.1
20260509122937 68 3 1.0 3.0 0.00 0.00 0.00 33 1008.2
20260509122438 68 38 0.0 3.0 0.00 0.00 0.00 34 1007.9
20260509121937 68 31 0.0 3.0 0.00 0.00 0.00 35 1007.9
20260509121437 68 27 1.0 3.0 0.00 0.00 0.00 32 1007.9
20260509121200 68 31 0.0 3.0 0.00 0.00 0.00 33 1007.8
20260509120701 68 32 1.0 3.0 0.00 0.00 0.00 32 1007.9
20260509115936 67 31 0.0 2.0 0.00 0.00 0.00 33 1007.8
20260509115436 67 38 0.0 2.0 0.00 0.00 0.00 35 1007.7
20260509114936 68 0 0.0 2.0 0.00 0.00 0.00 34 1007.8
20260509114437 67 34 0.0 2.0 0.00 0.00 0.00 33 1007.8
20260509113936 67 32 0.0 3.0 0.00 0.00 0.00 33 1007.8
20260509113436 68 351 0.0 4.0 0.00 0.00 0.00 33 1007.8
20260509113157 67 32 2.0 4.0 0.00 0.00 0.00 33 1007.7
20260509112435 68 17 0.0 4.0 0.00 0.00 0.00 34 1007.8
20260509111935 68 14 2.0 4.0 0.00 0.00 0.00 32 1007.8
20260509111700 68 47 1.0 4.0 0.00 0.00 0.00 32 1007.7
20260509110936 68 30 0.0 4.0 0.00 0.00 0.00 33 1007.8
20260509110436 67 49 4.0 4.0 0.00 0.00 0.00 32 1007.7
20260509105934 66 35 1.0 3.0 0.00 0.00 0.00 34 1007.7
20260509105435 66 28 0.0 3.0 0.00 0.00 0.00 36 1007.7
20260509104935 65 28 0.0 2.0 0.00 0.00 0.00 37 1007.7
20260509104435 65 11 0.0 2.0 0.00 0.00 0.00 37 1007.7
20260509103935 65 354 0.0 1.0 0.00 0.00 0.00 37 1007.6
20260509103435 66 351 0.0 1.0 0.00 0.00 0.00 39 1007.7
20260509102934 67 353 0.0 3.0 0.00 0.00 0.00 37 1007.7
20260509102434 66 357 0.0 4.0 0.00 0.00 0.00 32 1007.6
20260509101934 67 343 1.0 4.0 0.00 0.00 0.00 39 1007.8
20260509101434 67 8 0.0 2.0 0.00 0.00 0.00 33 1007.7
20260509100934 68 39 0.0 0.0 0.00 0.00 0.00 33 1007.8
20260509100657 69 44 0.0 3.0 0.00 0.00 0.00 32 1007.8
20260509095934 68 42 0.0 3.0 0.00 0.00 0.00 31 1007.8
20260509095434 68 110 0.0 3.0 0.00 0.00 0.00 32 1007.7
20260509094934 67 3 1.0 3.0 0.00 0.00 0.00 33 1007.8
20260509094434 66 83 0.0 2.0 0.00 0.00 0.00 32 1007.8
20260509094203 66 357 1.0 2.0 0.00 0.00 0.00 36 1007.8
20260509093433 66 31 0.0 1.0 0.00 0.00 0.00 37 1007.7
20260509092933 67 290 0.0 0.0 0.00 0.00 0.00 38 1007.8
20260509092433 67 41 0.0 0.0 0.00 0.00 0.00 33 1007.7
20260509091933 67 10 0.0 0.0 0.00 0.00 0.00 31 1007.8
20260509091433 67 0 0.0 2.0 0.00 0.00 0.00 36 1007.8
20260509090933 66 0 1.0 2.0 0.00 0.00 0.00 35 1007.8
20260509090433 67 299 0.0 0.0 0.00 0.00 0.00 37 1007.8
20260509085932 68 130 0.0 0.0 0.00 0.00 0.00 33 1007.8
20260509085432 67 123 0.0 0.0 0.00 0.00 0.00 30 1007.7
20260509085153 67 135 0.0 0.0 0.00 0.00 0.00 34 1007.8
20260509084432 68 135 0.0 0.0 0.00 0.00 0.00 38 1007.8
20260509083932 69 137 0.0 0.0 0.00 0.00 0.00 30 1007.7
20260509083432 69 137 0.0 0.0 0.00 0.00 0.00 30 1007.8
20260509083159 69 137 0.0 0.0 0.00 0.00 0.00 28 1007.7
20260509082432 69 345 0.0 0.0 0.00 0.00 0.00 30 1007.8
20260509081932 69 66 0.0 1.0 0.00 0.00 0.00 30 1007.8
20260509081432 69 133 0.0 1.0 0.00 0.00 0.00 30 1007.8
20260509080930 69 117 0.0 0.0 0.00 0.00 0.00 32 1007.7
20260509080431 69 27 0.0 0.0 0.00 0.00 0.00 31 1007.7
20260509075931 69 25 0.0 0.0 0.00 0.00 0.00 31 1007.7
20260509075431 70 27 0.0 0.0 0.00 0.00 0.00 32 1007.7
20260509075150 69 27 0.0 0.0 0.00 0.00 0.00 33 1007.6
20260509074431 70 28 0.0 0.0 0.00 0.00 0.00 33 1007.8
20260509073932 70 28 0.0 0.0 0.00 0.00 0.00 31 1007.8
20260509073431 70 30 0.0 0.0 0.00 0.00 0.00 31 1007.8
20260509073151 69 82 0.0 2.0 0.00 0.00 0.00 30 1007.8
20260509072429 69 334 0.0 4.0 0.00 0.00 0.00 34 1007.9
20260509071929 69 18 2.0 4.0 0.00 0.00 0.00 37 1007.7
20260509071429 68 21 0.0 0.0 0.00 0.00 0.00 38 1007.7
20260509071151 68 264 0.0 0.0 0.00 0.00 0.00 43 1008.1
20260509070430 69 292 0.0 0.0 0.00 0.00 0.00 40 1007.7
20260509065930 69 292 0.0 1.0 0.00 0.00 0.00 40 1007.6
20260509065914 69 354 0.0 1.0 0.00 0.00 0.00 36 1007.6
20260509064929 69 10 0.0 0.0 0.00 0.00 0.00 37 1007.6
20260509064429 69 276 0.0 0.0 0.00 0.00 0.00 42 1007.6
20260509063929 69 276 0.0 2.0 0.00 0.00 0.00 38 1007.6
20260509063429 70 41 0.0 2.0 0.00 0.00 0.00 38 1007.5
20260509062929 70 289 0.0 2.0 0.00 0.00 0.00 40 1007.6
20260509062429 71 357 0.0 0.0 0.00 0.00 0.00 40 1007.6
20260509062414 71 357 0.0 0.0 0.00 0.00 0.00 38 1007.5
20260509061428 72 357 0.0 0.0 0.00 0.00 0.00 33 1007.6
20260509060928 73 355 0.0 0.0 0.00 0.00 0.00 33 1007.6
20260509060647 73 282 0.0 0.0 0.00 0.00 0.00 27 1007.6
20260509055928 74 272 0.0 0.0 0.00 0.00 0.00 27 1007.5
20260509055428 74 272 0.0 1.0 0.00 0.00 0.00 28 1007.4
20260509055408 75 272 0.0 3.0 0.00 0.00 0.00 29 1007.4
20260509054428 76 35 1.0 3.0 0.00 0.00 0.00 24 1007.3
20260509054150 77 25 1.0 3.0 0.00 0.00 0.00 23 1007.4
20260509053427 77 34 0.0 3.0 0.00 0.00 0.00 24 1007.4
20260509052927 77 16 1.0 3.0 0.00 0.00 0.00 24 1007.4
20260509052653 78 51 0.0 2.0 0.00 0.00 0.00 24 1007.4
20260509051927 79 32 0.0 3.0 0.00 0.00 0.00 21 1007.4
20260509051427 80 17 0.0 4.0 0.00 0.00 0.00 21 1007.4
20260509050926 80 261 1.0 4.0 0.00 0.00 0.00 18 1007.4
20260509050427 78 336 0.0 1.0 0.00 0.00 0.00 23 1007.4
20260509050413 79 17 0.0 2.0 0.00 0.00 0.00 23 1007.4
20260509045427 80 341 0.0 3.0 0.00 0.00 0.00 20 1007.3
20260509044927 81 16 0.0 10.0 0.00 0.00 0.00 20 1007.4
20260509044427 83 66 2.0 10.0 0.00 0.00 0.00 18 1007.3
20260509043927 82 279 4.0 11.0 0.00 0.00 0.00 17 1007.3
20260509043425 83 47 2.0 11.0 0.00 0.00 0.00 18 1007.2
20260509042926 81 321 4.0 9.0 0.00 0.00 0.00 19 1007.1
20260509042426 81 0 0.0 5.0 0.00 0.00 0.00 20 1007.1
20260509041926 80 312 2.0 5.0 0.00 0.00 0.00 20 1007.1
20260509041426 80 337 0.0 1.0 0.00 0.00 0.00 20 1007.0
20260509041154 80 302 0.0 3.0 0.00 0.00 0.00 21 1007.0
20260509040425 81 331 1.0 3.0 0.00 0.00 0.00 19 1007.0
20260509040145 82 11 0.0 5.0 0.00 0.00 0.00 18 1006.9
20260509035426 83 329 0.0 5.0 0.00 0.00 0.00 17 1006.9
20260509034925 83 296 3.0 5.0 0.00 0.00 0.00 17 1006.8
20260509034424 82 310 1.0 4.0 0.00 0.00 0.00 17 1006.8
20260509033925 83 299 1.0 5.0 0.00 0.00 0.00 18 1006.6
20260509033425 83 300 0.0 5.0 0.00 0.00 0.00 17 1006.8
20260509032925 83 276 3.0 5.0 0.00 0.00 0.00 16 1006.6
20260509032425 83 314 1.0 5.0 0.00 0.00 0.00 17 1006.6
20260509032145 83 288 0.0 9.0 0.00 0.00 0.00 17 1006.5
20260509031640 83 290 4.0 9.0 0.00 0.00 0.00 17 1006.5
20260509030923 82 278 0.0 4.0 0.00 0.00 0.00 18 1006.3
20260509030423 83 303 0.0 5.0 0.00 0.00 0.00 17 1006.4
20260509030143 82 272 3.0 5.0 0.00 0.00 0.00 16 1006.3
20260509025907 82 285 0.0 0.0 0.00 0.00 0.00 18 1006.2
20260509024923 82 293 0.0 1.0 0.00 0.00 0.00 17 1006.2
20260509024424 83 313 0.0 4.0 0.00 0.00 0.00 17 1006.2
20260509024141 83 305 1.0 4.0 0.00 0.00 0.00 16 1006.1
20260509023648 84 350 0.0 4.0 0.00 0.00 0.00 15 1006.0
20260509022923 84 282 0.0 6.0 0.00 0.00 0.00 15 1006.0
20260509022423 84 292 1.0 6.0 0.00 0.00 0.00 15 1005.9
20260509021923 84 330 1.0 5.0 0.00 0.00 0.00 15 1005.9
20260509021647 85 292 0.0 0.0 0.00 0.00 0.00 15 1005.9
20260509020923 86 279 0.0 3.0 0.00 0.00 0.00 14 1005.7
20260509020423 86 292 0.0 6.0 0.00 0.00 0.00 13 1005.7
20260509020139 87 310 2.0 6.0 0.00 0.00 0.00 13 1005.7
20260509015644 87 307 0.0 7.0 0.00 0.00 0.00 13 1005.7
20260509014922 88 341 3.0 7.0 0.00 0.00 0.00 12 1005.6
20260509014642 88 334 2.0 13.0 0.00 0.00 0.00 12 1005.5
20260509013921 88 302 5.0 13.0 0.00 0.00 0.00 12 1005.5
20260509013422 89 305 5.0 13.0 0.00 0.00 0.00 12 1005.3
20260509012922 89 289 5.0 14.0 0.00 0.00 0.00 11 1005.3
20260509012645 89 298 6.0 14.0 0.00 0.00 0.00 11 1005.3
20260509011922 89 281 6.0 15.0 0.00 0.00 0.00 11 1005.3
20260509011422 89 261 4.0 15.0 0.00 0.00 0.00 11 1005.2
20260509010922 90 290 7.0 13.0 0.00 0.00 0.00 11 1005.5
20260509010418 90 233 5.0 13.0 0.00 0.00 0.00 11 1005.3
20260509005921 90 295 4.0 15.0 0.00 0.00 0.00 12 1005.3
20260509005644 90 299 8.0 15.0 0.00 0.00 0.00 11 1005.5
20260509004922 90 226 9.0 15.0 0.00 0.00 0.00 11 1005.5
20260509004647 90 248 9.0 14.0 0.00 0.00 0.00 11 1005.5
20260509003921 91 268 5.0 13.0 0.00 0.00 0.00 11 1005.5
20260509003421 91 298 8.0 16.0 0.00 0.00 0.00 11 1005.5
20260509002920 90 255 5.0 16.0 0.00 0.00 0.00 11 1005.5
20260509002905 91 299 6.0 17.0 0.00 0.00 0.00 11 1005.5
20260509001921 91 298 10.0 17.0 0.00 0.00 0.00 11 1005.5
20260509001420 91 245 6.0 14.0 0.00 0.00 0.00 11 1005.5
20260509000920 92 265 7.0 14.0 0.00 0.00 0.00 11 1005.6
20260509000420 91 219 4.0 11.0 0.00 0.00 0.00 11 1005.6
20260508235921 91 262 2.0 14.0 0.00 0.00 0.00 11 1005.5
20260508235420 91 278 7.0 14.0 0.00 0.00 0.00 11 1005.6
20260508234920 91 279 9.0 14.0 0.00 0.00 0.00 11 1005.5
20260508234419 91 298 7.0 13.0 0.00 0.00 0.00 11 1005.6
20260508233916 91 303 7.0 16.0 0.00 0.00 0.00 11 1005.5
20260508233419 91 305 8.0 16.0 0.00 0.00 0.00 11 1005.6
20260508232919 91 317 8.0 16.0 0.00 0.00 0.00 11 1005.6
20260508232419 91 331 9.0 19.0 0.00 0.00 0.00 11 1005.7
20260508231919 91 305 9.0 19.0 0.00 0.00 0.00 11 1005.6
20260508231419 91 276 9.0 18.0 0.00 0.00 0.00 11 1005.6
20260508231143 91 309 7.0 18.0 0.00 0.00 0.00 12 1005.6
20260508230419 91 337 7.0 16.0 0.00 0.00 0.00 11 1005.7
20260508225914 91 283 11.0 17.0 0.00 0.00 0.00 12 1005.8
20260508225418 92 261 10.0 17.0 0.00 0.00 0.00 11 1005.7
20260508224918 92 268 9.0 16.0 0.00 0.00 0.00 12 1005.7
20260508224419 92 283 7.0 16.0 0.00 0.00 0.00 12 1005.8
20260508223918 92 314 9.0 16.0 0.00 0.00 0.00 12 1005.9
20260508223418 92 275 8.0 15.0 0.00 0.00 0.00 12 1005.9
20260508222918 91 347 8.0 16.0 0.00 0.00 0.00 12 1005.9
20260508222645 92 288 8.0 16.0 0.00 0.00 0.00 12 1006.1
20260508221918 92 295 3.0 11.0 0.00 0.00 0.00 13 1006.1
20260508221417 92 285 5.0 14.0 0.00 0.00 0.00 12 1006.2
20260508221138 91 310 7.0 14.0 0.00 0.00 0.00 13 1006.3
20260508220416 91 310 8.0 16.0 0.00 0.00 0.00 13 1006.4
20260508215917 91 296 8.0 16.0 0.00 0.00 0.00 13 1006.4
20260508215859 91 295 9.0 15.0 0.00 0.00 0.00 13 1006.5
20260508214918 92 244 4.0 15.0 0.00 0.00 0.00 13 1006.5
20260508214902 91 268 7.0 13.0 0.00 0.00 0.00 13 1006.5
20260508213917 91 312 7.0 13.0 0.00 0.00 0.00 14 1006.6
20260508213412 92 271 5.0 11.0 0.00 0.00 0.00 14 1006.8
20260508212912 91 327 6.0 18.0 0.00 0.00 0.00 14 1006.9
20260508212416 91 288 5.0 18.0 0.00 0.00 0.00 14 1006.9
20260508211916 91 244 6.0 17.0 0.00 0.00 0.00 14 1007.0
20260508211416 90 251 9.0 19.0 0.00 0.00 0.00 14 1007.0
20260508210916 90 261 9.0 19.0 0.00 0.00 0.00 14 1007.1
20260508210415 91 217 9.0 15.0 0.00 0.00 0.00 14 1007.0
20260508205916 91 165 4.0 21.0 0.00 0.00 0.00 14 1007.1
20260508205411 90 257 9.0 21.0 0.00 0.00 0.00 14 1007.2
20260508204912 90 295 8.0 20.0 0.00 0.00 0.00 14 1007.3
20260508204415 91 24 10.0 16.0 0.00 0.00 0.00 15 1007.3
20260508203915 90 276 8.0 14.0 0.00 0.00 0.00 15 1007.4
20260508203415 90 213 7.0 16.0 0.00 0.00 0.00 15 1007.3
20260508202915 90 290 6.0 16.0 0.00 0.00 0.00 15 1007.4
20260508202415 90 266 6.0 17.0 0.00 0.00 0.00 15 1007.5
20260508201915 89 220 10.0 17.0 0.00 0.00 0.00 15 1007.7
20260508201636 89 300 11.0 17.0 0.00 0.00 0.00 15 1007.7
20260508200910 89 257 10.0 19.0 0.00 0.00 0.00 15 1007.6
20260508200410 90 320 9.0 19.0 0.00 0.00 0.00 15 1007.6
20260508195914 90 351 6.0 15.0 0.00 0.00 0.00 15 1007.7
20260508195414 89 282 9.0 15.0 0.00 0.00 0.00 15 1007.8
20260508195353 90 285 8.0 19.0 0.00 0.00 0.00 15 1007.8
20260508194414 89 247 7.0 19.0 0.00 0.00 0.00 15 1007.9
20260508193914 89 323 7.0 15.0 0.00 0.00 0.00 15 1007.9
20260508193638 90 261 4.0 14.0 0.00 0.00 0.00 15 1007.8
20260508192909 90 202 4.0 14.0 0.00 0.00 0.00 15 1008.1
20260508192410 89 274 6.0 13.0 0.00 0.00 0.00 15 1008.2
20260508192135 90 196 5.0 10.0 0.00 0.00 0.00 16 1008.3
20260508191413 89 169 1.0 10.0 0.00 0.00 0.00 16 1008.4
20260508190913 89 204 4.0 10.0 0.00 0.00 0.00 16 1008.6
20260508190413 88 226 1.0 6.0 0.00 0.00 0.00 17 1008.7
20260508190135 88 171 2.0 6.0 0.00 0.00 0.00 17 1008.8
20260508185413 88 240 2.0 10.0 0.00 0.00 0.00 17 1008.9
20260508184912 87 234 4.0 10.0 0.00 0.00 0.00 18 1009.0
20260508184633 86 355 1.0 6.0 0.00 0.00 0.00 19 1009.0
20260508184133 86 300 4.0 7.0 0.00 0.00 0.00 19 1009.1
20260508183413 87 306 0.0 7.0 0.00 0.00 0.00 18 1009.2
20260508182912 87 169 4.0 7.0 0.00 0.00 0.00 18 1009.2
20260508182412 86 241 2.0 5.0 0.00 0.00 0.00 19 1009.4
20260508181912 85 155 1.0 6.0 0.00 0.00 0.00 19 1009.5
20260508181412 84 274 2.0 6.0 0.00 0.00 0.00 20 1009.5